EW9454 Weather Reports


time (UTC)temp
C
wind
direction
speed
KPH
gust
KPH
rain 1hr
cm
rain 24hr
cm
rain mn
cm
humidity
%
barometer
mb
20260505125014 16 204 8.0 19.3 0.00 0.00 0.00 64 1005.5
20260505124543 16 235 6.4 19.3 0.00 0.00 0.00 65 1005.5
20260505124020 16 263 4.8 17.7 0.00 0.00 0.00 64 1005.6
20260505123515 16 198 4.8 22.5 0.00 0.00 0.00 64 1005.5
20260505123041 16 251 9.7 22.5 0.00 0.00 0.00 65 1005.5
20260505122514 15 213 6.4 19.3 0.00 0.00 0.00 67 1005.4
20260505122014 15 275 3.2 22.5 0.00 0.00 0.00 68 1005.4
20260505121535 14 152 4.8 22.5 0.00 0.00 0.00 71 1005.6
20260505121012 13 269 4.8 12.9 0.00 0.00 0.00 71 1005.4
20260505120517 13 150 1.6 9.7 0.00 0.00 0.00 71 1005.5
20260505120038 14 176 3.2 9.7 0.00 0.00 0.00 70 1005.6
20260505115515 14 226 3.2 8.0 0.00 0.00 0.00 68 1005.5
20260505115012 15 250 1.6 14.5 0.00 0.00 0.00 67 1005.6
20260505114538 15 252 3.2 16.1 0.00 0.00 0.00 67 1005.7
20260505114016 15 196 6.4 19.3 0.00 0.00 0.00 66 1005.5
20260505113513 15 229 9.7 19.3 0.00 0.00 0.00 66 1005.3
20260505113033 15 217 6.4 24.1 0.00 0.00 0.00 67 1005.3
20260505112516 15 223 3.2 19.3 0.00 0.00 0.00 67 1005.1
20260505112012 15 186 8.0 19.3 0.00 0.00 0.00 66 1005.0
20260505111542 15 229 6.4 16.1 0.00 0.00 0.00 66 1005.1
20260505111013 15 224 4.8 19.3 0.00 0.00 0.00 66 1005.1
20260505110514 15 243 8.0 19.3 0.00 0.00 0.00 66 1005.1
20260505102011 14 139 8.0 20.9 0.00 0.00 0.00 67 1004.9
20260505101546 14 153 8.0 16.1 0.00 0.00 0.00 68 1004.9
20260505101015 13 254 6.4 16.1 0.00 0.00 0.00 68 1004.8
20260505100511 13 187 4.8 16.1 0.00 0.00 0.00 69 1004.8
20260505100039 13 229 4.8 11.3 0.00 0.00 0.00 70 1005.0
20260505095512 13 133 0.0 11.3 0.00 0.00 0.00 71 1005.1
20260505095012 14 150 0.0 11.3 0.00 0.00 0.00 70 1005.3
20260505094538 14 202 1.6 9.7 0.00 0.00 0.00 67 1005.2
20260505094013 14 184 0.0 8.0 0.00 0.00 0.00 66 1005.2
20260505093512 14 34 3.2 8.0 0.00 0.00 0.00 65 1005.3
20260505093041 14 217 3.2 14.5 0.00 0.00 0.00 65 1005.2
20260505092516 14 182 1.6 14.5 0.00 0.00 0.00 65 1005.3
20260505092013 14 217 3.2 14.5 0.00 0.00 0.00 65 1005.2
20260505091540 14 202 4.8 22.5 0.00 0.00 0.00 65 1005.1
20260505091014 14 232 6.4 22.5 0.00 0.00 0.00 66 1005.1
20260505090512 14 253 1.6 12.9 0.00 0.00 0.00 66 1005.1
20260505090054 14 199 4.8 14.5 0.00 0.00 0.00 66 1005.3
20260505085514 14 212 4.8 14.5 0.00 0.00 0.00 65 1005.1
20260505085017 14 150 4.8 12.9 0.00 0.00 0.00 65 1004.9
20260505084548 14 96 4.8 14.5 0.00 0.00 0.00 65 1005.0
20260505084012 14 186 3.2 14.5 0.00 0.00 0.00 64 1005.4
20260505083513 15 233 4.8 17.7 0.00 0.00 0.00 64 1005.4
20260505083038 15 262 8.0 17.7 0.00 0.00 0.00 64 1005.3
20260505082511 15 225 8.0 17.7 0.00 0.00 0.00 63 1005.4
20260505082012 15 215 9.7 17.7 0.00 0.00 0.00 63 1005.4
20260505081543 15 153 9.7 17.7 0.00 0.00 0.00 63 1005.4
20260505081012 15 250 8.0 22.5 0.00 0.00 0.00 63 1005.4
20260505080513 15 221 8.0 22.5 0.00 0.00 0.00 63 1005.4
20260505080042 15 294 6.4 19.3 0.00 0.00 0.00 63 1005.2
20260505075514 15 192 8.0 22.5 0.00 0.03 0.00 62 1005.4
20260505075013 15 248 6.4 22.5 0.00 0.03 0.00 63 1005.1
20260505074539 15 243 11.3 22.5 0.00 0.03 0.00 62 1005.0
20260505074015 15 227 6.4 22.5 0.00 0.03 0.00 62 1005.0
20260505073513 15 171 8.0 19.3 0.00 0.03 0.00 62 1004.9
20260505073041 15 231 9.7 24.1 0.00 0.03 0.00 62 1005.0
20260505072516 15 246 12.9 24.1 0.00 0.03 0.00 62 1005.0
20260505072012 15 198 8.0 24.1 0.00 0.03 0.00 62 1005.0
20260505071545 15 232 8.0 19.3 0.00 0.03 0.00 62 1005.1
20260505071014 15 254 4.8 27.4 0.00 0.03 0.00 62 1005.0
20260505070513 15 141 8.0 27.4 0.00 0.03 0.00 62 1005.1
20260505070044 15 150 6.4 24.1 0.00 0.03 0.00 62 1005.1
20260505065512 15 117 8.0 25.7 0.00 0.03 0.00 63 1005.2
20260505065014 15 179 4.8 25.7 0.00 0.03 0.00 63 1005.0
20260505064541 15 183 3.2 19.3 0.00 0.03 0.00 63 1005.0
20260505064015 14 112 8.0 17.7 0.00 0.03 0.00 63 1005.1
20260505063515 14 182 3.2 17.7 0.00 0.03 0.00 64 1005.2
20260505063047 14 198 3.2 19.3 0.00 0.03 0.00 64 1005.1
20260505062519 14 312 8.0 19.3 0.00 0.03 0.00 65 1005.2
20260505062010 13 178 3.2 14.5 0.00 0.03 0.00 66 1005.1
20260505061548 13 144 4.8 12.9 0.00 0.03 0.00 67 1005.1
20260505061018 13 211 4.8 14.5 0.00 0.03 0.00 68 1005.0
20260505060514 13 270 3.2 14.5 0.00 0.03 0.00 70 1005.1
20260505060050 12 140 3.2 16.1 0.00 0.03 0.00 71 1005.1
20260505055515 12 255 4.8 12.9 0.00 0.03 0.00 73 1005.0
20260505055015 11 250 3.2 8.0 0.00 0.03 0.00 75 1005.0
20260505054539 11 253 4.8 9.7 0.00 0.03 0.00 76 1005.1
20260505054017 11 269 4.8 8.0 0.00 0.03 0.00 77 1005.0
20260505053512 11 251 6.4 9.7 0.00 0.03 0.00 77 1005.1
20260505053059 11 236 0.0 12.9 0.00 0.03 0.00 77 1005.1
20260505052517 11 221 6.4 12.9 0.00 0.03 0.00 76 1005.1
20260505052017 11 223 3.2 14.5 0.00 0.03 0.00 77 1005.2
20260505051549 11 226 3.2 14.5 0.00 0.03 0.00 77 1005.2
20260505051014 11 188 3.2 11.3 0.00 0.03 0.00 77 1005.2
20260505050519 10 167 1.6 11.3 0.00 0.03 0.00 78 1005.2
20260505041529 10 175 0.0 3.2 0.00 0.03 0.00 81 1005.2
20260505041007 10 175 0.0 4.8 0.00 0.03 0.00 80 1005.2
20260505040509 10 175 0.0 4.8 0.00 0.03 0.00 80 1005.2
20260505040029 10 174 0.0 4.8 0.00 0.03 0.00 78 1005.1
20260505035513 11 174 1.6 3.2 0.00 0.03 0.03 78 1005.1
20260505035010 11 234 0.0 8.0 0.00 0.03 0.03 79 1005.1
20260505034530 11 234 0.0 8.0 0.00 0.03 0.03 78 1005.2
20260505034008 11 198 1.6 8.0 0.00 0.03 0.03 76 1005.1
20260505033507 11 188 0.0 4.8 0.00 0.03 0.03 76 1005.2
20260505033044 11 184 0.0 9.7 0.00 0.03 0.03 76 1005.2
20260505032510 11 209 4.8 9.7 0.00 0.03 0.03 76 1005.3
20260505032010 11 214 3.2 8.0 0.00 0.03 0.03 77 1005.2
20260505031530 11 190 0.0 0.0 0.00 0.03 0.03 76 1005.3
20260505031010 11 190 0.0 0.0 0.00 0.03 0.03 76 1005.3
20260505030509 11 190 0.0 0.0 0.00 0.03 0.03 76 1005.2
20260505030030 11 190 0.0 0.0 0.00 0.03 0.03 76 1005.3
20260505025508 11 190 0.0 0.0 0.00 0.03 0.03 75 1005.4
20260505025010 11 190 0.0 0.0 0.00 0.03 0.03 75 1005.4
20260505024531 12 190 0.0 0.0 0.00 0.03 0.03 74 1005.5
20260505024009 12 190 0.0 0.0 0.00 0.03 0.03 73 1005.6
20260505023509 12 196 0.0 3.2 0.00 0.03 0.03 72 1005.4
20260505023028 12 196 0.0 3.2 0.00 0.03 0.03 72 1005.7
20260505022513 12 193 0.0 3.2 0.00 0.03 0.03 72 1005.7
20260505022009 12 193 1.6 6.4 0.00 0.03 0.03 73 1005.8
20260505021530 12 191 1.6 6.4 0.00 0.03 0.03 72 1005.8
20260505021009 12 232 1.6 4.8 0.00 0.03 0.03 72 1005.9
20260505020510 12 232 1.6 4.8 0.00 0.03 0.03 71 1005.9
20260505020030 12 230 1.6 4.8 0.00 0.03 0.03 71 1005.8
20260505015511 13 233 0.0 3.2 0.00 0.03 0.03 71 1005.8
20260505015011 13 233 0.0 3.2 0.00 0.03 0.03 70 1005.7
20260505014531 13 233 0.0 3.2 0.00 0.03 0.03 69 1005.6
20260505014012 13 237 0.0 3.2 0.00 0.03 0.03 67 1005.7
20260505013508 13 237 0.0 6.4 0.00 0.03 0.03 67 1005.7
20260505013031 13 192 0.0 3.2 0.00 0.03 0.03 67 1005.5
20260505012507 13 192 0.0 3.2 0.00 0.03 0.03 67 1005.6
20260505012009 13 190 0.0 3.2 0.00 0.03 0.03 66 1005.6
20260505011531 13 190 0.0 3.2 0.00 0.03 0.03 66 1005.6
20260505011010 13 190 0.0 3.2 0.00 0.03 0.03 66 1005.6
20260505010509 13 190 0.0 3.2 0.00 0.03 0.03 66 1005.5
20260505010031 13 190 0.0 3.2 0.00 0.03 0.03 66 1005.5
20260505005510 13 190 0.0 3.2 0.00 0.03 0.03 66 1005.4
20260505005011 13 190 0.0 3.2 0.00 0.03 0.03 65 1005.3
20260505004543 13 192 0.0 3.2 0.00 0.03 0.03 67 1005.3
20260505004010 13 192 1.6 4.8 0.00 0.03 0.03 66 1005.3
20260505003507 13 190 1.6 4.8 0.00 0.03 0.03 67 1005.0
20260505003031 14 193 0.0 3.2 0.00 0.03 0.03 65 1005.0
20260505002511 15 193 0.0 8.0 0.00 0.03 0.03 64 1005.2
20260505002012 15 193 3.2 9.7 0.00 0.03 0.03 63 1005.2
20260505001532 15 213 6.4 11.3 0.00 0.03 0.03 61 1005.1
20260505001010 15 215 4.8 11.3 0.00 0.03 0.03 61 1005.1
20260505000509 16 229 6.4 9.7 0.00 0.03 0.03 59 1005.0
20260505000031 17 207 3.2 11.3 0.00 0.03 0.03 56 1005.0
20260504235509 17 213 6.4 14.5 0.00 0.03 0.03 53 1004.9
20260504235011 17 227 8.0 14.5 0.00 0.03 0.03 53 1004.9
20260504234539 17 230 4.8 14.5 0.00 0.03 0.03 53 1004.8
20260504234009 17 237 4.8 11.3 0.00 0.03 0.03 52 1004.8
20260504233510 17 246 6.4 11.3 0.00 0.03 0.03 52 1004.8
20260504233031 18 223 4.8 12.9 0.00 0.03 0.03 52 1004.6
20260504232511 18 233 6.4 12.9 0.00 0.03 0.03 52 1004.5
20260504232011 18 232 6.4 12.9 0.00 0.03 0.03 52 1004.3
20260504231538 18 242 6.4 12.9 0.00 0.03 0.03 52 1004.6
20260504231011 18 226 6.4 16.1 0.00 0.03 0.03 50 1004.4
20260504230511 18 240 9.7 19.3 0.00 0.03 0.03 51 1004.4
20260504230035 18 229 8.0 19.3 0.00 0.03 0.03 50 1004.2
20260504225518 18 236 11.3 16.1 0.00 0.03 0.03 49 1004.4
20260504225011 18 258 6.4 16.1 0.00 0.03 0.03 50 1004.5
20260504224529 18 222 6.4 14.5 0.00 0.03 0.03 51 1004.3
20260504224011 19 264 8.0 16.1 0.00 0.03 0.03 54 1004.3
20260504223510 18 238 8.0 14.5 0.00 0.03 0.03 50 1004.2
20260504223029 19 250 4.8 14.5 0.00 0.03 0.03 51 1004.3
20260504222505 18 263 6.4 14.5 0.00 0.03 0.03 52 1004.2
20260504222011 18 268 8.0 14.5 0.00 0.03 0.03 53 1004.2
20260504221528 18 242 8.0 12.9 0.00 0.03 0.03 53 1004.3
20260504221010 18 263 4.8 9.7 0.00 0.03 0.03 54 1004.2
20260504220510 18 236 6.4 9.7 0.00 0.03 0.03 53 1004.1
20260504220028 18 244 4.8 12.9 0.00 0.03 0.03 52 1004.0
20260504215513 19 254 4.8 14.5 0.00 0.03 0.03 51 1004.2
20260504215012 20 236 8.0 16.1 0.00 0.03 0.03 50 1004.3
20260504214536 19 263 11.3 19.3 0.00 0.03 0.03 51 1004.3
20260504214014 18 224 8.0 19.3 0.00 0.03 0.03 52 1004.3
20260504213516 18 257 8.0 22.5 0.00 0.03 0.03 53 1004.2
20260504213031 18 252 16.1 22.5 0.00 0.03 0.03 52 1003.9
20260504212512 18 271 4.8 11.3 0.00 0.03 0.03 54 1003.8
20260504212008 18 184 0.0 20.9 0.00 0.03 0.03 57 1003.7
20260504211529 18 236 12.9 20.9 0.00 0.03 0.03 51 1003.8
20260504211009 19 232 6.4 20.9 0.00 0.03 0.03 51 1004.1
20260504210515 20 249 12.9 20.9 0.00 0.03 0.03 49 1004.0
20260504210031 20 268 9.7 19.3 0.00 0.03 0.03 48 1004.0
20260504205511 20 254 6.4 19.3 0.00 0.03 0.03 49 1004.0
20260504205012 20 267 11.3 19.3 0.00 0.03 0.03 49 1004.2
20260504204604 20 252 8.0 16.1 0.00 0.03 0.03 49 1004.1
20260504204008 21 267 8.0 14.5 0.00 0.03 0.03 47 1004.0
20260504203509 21 244 4.8 11.3 0.00 0.03 0.03 46 1004.0
20260504203031 21 248 3.2 9.7 0.00 0.03 0.03 48 1003.9
20260504202512 20 227 4.8 8.0 0.00 0.03 0.03 49 1003.9
20260504202010 20 240 1.6 12.9 0.00 0.03 0.03 56 1004.0
20260504201530 19 257 4.8 12.9 0.00 0.03 0.03 55 1004.0
20260504201011 18 234 3.2 12.9 0.00 0.03 0.03 53 1004.3
20260504200512 18 162 0.0 9.7 0.00 0.03 0.03 54 1004.3
20260504200035 19 223 6.4 11.3 0.00 0.03 0.03 53 1004.3
20260504195511 19 236 6.4 11.3 0.00 0.03 0.03 52 1004.5
20260504195011 20 234 6.4 11.3 0.00 0.03 0.03 50 1004.6
20260504194531 19 223 4.8 9.7 0.00 0.03 0.03 52 1004.5
20260504194011 19 201 3.2 11.3 0.00 0.03 0.03 53 1004.6
20260504193513 19 205 6.4 11.3 0.00 0.03 0.03 50 1004.8
20260504193031 20 235 8.0 11.3 0.00 0.03 0.03 50 1004.7
20260504192511 20 215 6.4 12.9 0.00 0.03 0.03 51 1004.9
20260504192012 20 223 4.8 12.9 0.00 0.03 0.03 51 1005.0
20260504191530 19 240 6.4 11.3 0.00 0.03 0.03 52 1005.0
20260504191012 19 198 6.4 11.3 0.00 0.03 0.03 51 1005.0
20260504190512 18 226 6.4 14.5 0.00 0.03 0.03 50 1005.0
20260504190035 18 228 8.0 14.5 0.00 0.03 0.03 51 1005.1
20260504185508 18 236 8.0 12.9 0.00 0.03 0.03 52 1005.3
20260504185012 18 225 6.4 11.3 0.00 0.03 0.03 52 1005.4
20260504184532 18 238 8.0 12.9 0.00 0.03 0.03 51 1005.5
20260504184017 18 214 6.4 12.9 0.00 0.03 0.03 53 1005.7
20260504183512 18 199 6.4 9.7 0.00 0.03 0.03 55 1005.7
20260504183032 18 211 4.8 9.7 0.00 0.03 0.03 53 1005.9
20260504182512 18 206 4.8 11.3 0.00 0.03 0.03 55 1005.9
20260504182013 17 232 4.8 11.3 0.00 0.03 0.03 56 1006.1
20260504181529 17 200 4.8 9.7 0.00 0.03 0.03 56 1006.1
20260504181010 17 260 6.4 11.3 0.00 0.03 0.03 55 1006.1
20260504180509 17 243 6.4 11.3 0.00 0.03 0.03 56 1006.2
20260504180031 17 210 4.8 11.3 0.00 0.03 0.03 56 1006.1
20260504175512 17 234 3.2 11.3 0.00 0.03 0.03 56 1006.2
20260504175011 17 234 4.8 12.9 0.00 0.03 0.03 57 1006.4
20260504174530 16 215 4.8 12.9 0.00 0.03 0.03 60 1006.5
20260504174012 16 247 6.4 12.9 0.00 0.03 0.03 58 1006.4
20260504173512 16 234 6.4 12.9 0.00 0.03 0.03 59 1006.5
20260504173030 16 259 4.8 12.9 0.00 0.03 0.03 62 1006.6
20260504172511 16 225 8.0 12.9 0.00 0.03 0.03 62 1006.9
20260504172015 15 205 6.4 12.9 0.00 0.03 0.03 62 1006.8
20260504171540 15 255 4.8 8.0 0.00 0.03 0.03 67 1006.7
20260504171013 15 219 3.2 11.3 0.00 0.03 0.03 68 1006.8
20260504170515 14 261 6.4 11.3 0.00 0.03 0.03 67 1006.8
20260504151012 9 189 0.0 3.2 0.00 0.03 0.03 82 1007.9
20260504150512 8 188 0.0 1.6 0.00 0.03 0.03 81 1008.0
20260504141012 9 233 9.7 14.5 0.00 0.03 0.03 75 1007.6
20260504140517 9 212 6.4 14.5 0.00 0.03 0.03 76 1007.6